DELTA 1 DEB, 7192

Orbit data source: Space-Track

DELTA 1 DEB, 7192 is space debris in LEO originally from a launch on Tue, 06 Nov 1973 UTC launched from the Air Force Western Test Range (AFWTR). Debris objects in space refer to the collection of defunct objects orbiting the Earth. Examples of debris include non-operational satellites, rocket bodies, and fragments generated from explosions, collisions, or faulty payload assembly.

Loading next visibility...
Identifier
7192, 1973-086FA
Orbit
LEO
Country
Flag of USUS
Related business
Manufacturer
Unknown
Mission
Spacecraft
Bus & Motor
Unknown
Mass
Unknown
Launch date (UTC)
1973-11-06 (53 years ago)
Launch vehicle
Unknown
Launch site
Air Force Western Test Range (AFWTR)
Object type
Payload
Rocket body
Debris
Shape & HBR
Unknown shape, 0.2 m
Radar Cross Section
Medium (>0.1 m² and <1 m²)

Expand to show TLE details & history
Last TLE update: 9 hours ago

TLE from 9 hours ago
0 DELTA 1 DEB
1 07192U 73086FA  26254.61405299 -.00000048  00000-0 -22251-3 0  9997
2 07192 102.2126  20.5181 0442136 106.5808 271.9768 11.59925597237140
Epoch: 2026-09-11T14:44Z
TLE epoch observation values (Epoch: 2026-09-11T14:44:14.178Z)
Latitude
13.15096°
Longitude
165.93909°
Altitude
1,870.673 km
Speed
6.952 km/s
True Right ascension
01h 10m 31s
True Declination
13° 05' 07"
Sunlit
Object was in full shadow at epoch
Visualization orbit readout
Latitude
Unknown
Longitude
Unknown
Altitude
Unknown
Speed
Unknown
Apparent Right ascension
Unknown
Apparent Declination
Unknown
Sunlit
N/A
Visualization observer readout
Local Sidereal Time
15:51:49
Azimuth
Unknown
Elevation
Unknown
Doppler factor
Unknown
Orbital elements
Apogee altitude
2,227.49 km
Perigee altitude
1,498.739 km
Semi-major axis
8,241.251 km
Eccentricity
0.04421
Inclination
102.2126°
RAAN
20.5181°
Arg. of periapsis
106.5808°
True anomaly
266.91025°
Mean anomaly
271.9768°
Eccentric anomaly
269.44367°
Mean motion
2.90104 °/min
Orbital period
124.09 mins
BSTAR
-0.00022251
Loading maneuver chart data...
Computing Atmospheric mass density...
Loading historical data...
Loading historical data...
Loading historical data...
Loading historical data...
Loading historical data...
Loading historical data...
Loading historical data...

Documentation

Showing up to 5 results
|